Regional Weather Roundup
Issued by NWS

Home | Current Version | Previous Version | Graphics & Text | Print | Product List | Glossary On
Versions: 1 2 3 4 5 6 7 8 9 10 11 12 13 14 15 16 17 18 19 20 21 22 23 24 25 26 27 28 29 30 31 32 33 34 35 36 37 38 39 40 41 42 43 44 45 46 47 48 49 50
626
ASUS45 KPSR 230710
RWRAZ

ARIZONA HOURLY REGIONAL WEATHER ROUNDUP
NATIONAL WEATHER SERVICE PHOENIX AZ
1200 AM MST THU FEB 23 2017

NOTE: FAIR INDICATES FEW OR NO CLOUDS BELOW 12,000 FEET WITH NO
SIGNIFICANT WEATHER AND/OR OBSTRUCTIONS TO VISIBILITY.

AZZ001>003-036-230800-
NORTHWEST ARIZONA

CITY           SKY/WX    TMP DP  RH WIND       PRES   REMARKS
BULLHEAD CITY  CLEAR     55  28  35 SW9       29.90R
KINGMAN        CLEAR     42  15  33 W7        29.86S
$$

AZZ004>008-015-016-018-230800-
NORTH CENTRAL ARIZONA

CITY           SKY/WX    TMP DP  RH WIND       PRES   REMARKS
GRAND CANYON   CLOUDY    33  21  61 SW12G22   29.77F WCI  24
WILLIAMS       CLOUDY    34  23  64 SW14G25   29.81S WCI  24
PRESCOTT       CLEAR     42  31  64 W15       29.84R
FLAGSTAFF      MOCLDY    36  28  73 SW26G32   29.80S WCI  24
PAYSON         PTCLDY    48  23  37 SW9       29.86R
PAGE           CLOUDY    47  19  33 W18G30    29.69R
$$

AZZ009>014-017-230800-
NORTHEAST ARIZONA

CITY           SKY/WX    TMP DP  RH WIND       PRES   REMARKS
WINSLOW        CLEAR     49  23  36 SW21G29   29.72F
SAINT JOHNS    CLEAR     52  26  36 SW21G32   29.75F
WINDOW ROCK    CLEAR     44  22  41 SW20G28   29.77F
SHOW LOW       CLEAR     45  28  53 S28G35    29.81F
$$

AZZ023-230800-
GREATER PHOENIX AREA

CITY           SKY/WX    TMP DP  RH WIND       PRES   REMARKS
PHOENIX        PTCLDY    64  36  35 W20G26    29.78R
BUCKEYE        CLEAR     55  43  62 NW7       29.83R
LUKE AFB       CLEAR     61  41  47 NW12      29.80R
DEER VALLEY    CLEAR     58  38  47 W10       29.79R
SCOTTSDALE     CLEAR     63  34  33 W8G17     29.81R
MESA-GATEWAY   PTCLDY    61  45  55 SW14      29.78F
$$

AZZ027-028-230800-
SOUTHWEST MARICOPA COUNTY AND PINAL COUNTY

CITY           SKY/WX    TMP DP  RH WIND       PRES   REMARKS
CASA GRANDE    NOT AVBL
GILA BEND      CLEAR     60  35  40 W12       29.85R
$$

AZZ503-504-507>509-230800-
SOUTHEAST ARIZONA

CITY           SKY/WX    TMP DP  RH WIND       PRES   REMARKS
TUCSON         PTCLDY    65  41  41 S7        29.86S
DAVIS-MONTHAN  MOCLDY    63  42  45 SW8       29.85S
NOGALES        PTCLDY    55  43  63 SE3       29.92F
SIERRA VISTA   MOCLDY    60  37  42 SW16      29.92S
DOUGLAS        CLEAR     59  37  44 CALM      29.91F
SAFFORD        CLOUDY    56  42  59 SE6       29.80F
$$

AZZ020-021-025-026-031-230800-
SOUTHWEST ARIZONA

CITY           SKY/WX    TMP DP  RH WIND       PRES   REMARKS
YUMA           CLEAR     56  34  43 W12G21    29.93R
$$

CAZ031-033-041-043-047-048-061-230800-
SOUTHERN CALIFORNIA

CITY           SKY/WX    TMP DP  RH WIND       PRES   REMARKS
DOWNTOWN L.A.  CLEAR     56  31  38 N6        30.06R
L.A. AIRPORT   PTCLDY    56  34  43 NW13G20   30.07S
SAN DIEGO      PTCLDY    56  45  66 CALM      30.08F
BURBANK        CLEAR     52  29  41 N18       30.05S
ONTARIO        PTCLDY    48  45  89 CALM      30.04S
RIVERSIDE      CLEAR     48  42  80 CALM      30.05R
PALM SPRINGS   CLEAR     58  39  49 E8        29.90S
EL CENTRO NAS  PTCLDY    53  33  46 W13       29.96R
BLYTHE         CLEAR     59  24  26 W10       29.90R
NEEDLES        CLEAR     56  25  30 W16       29.90S
$$

NVZ020-UTZ003-230800-
SOUTHERN NEVADA-UTAH

CITY           SKY/WX    TMP DP  RH WIND       PRES   REMARKS
LAS VEGAS      CLOUDY    49  28  44 E6        29.84S
SALT LAKE CITY CLOUDY    31  29  92 S7        29.75F WCI  24
$$

NMZ009-TXZ055-230800-
NEW MEXICO-WEST TEXAS

CITY           SKY/WX    TMP DP  RH WIND       PRES   REMARKS
ALBUQUERQUE    CLOUDY    47  28  47 SE6       29.83F
EL PASO        CLEAR     66  25  21 SW10      29.84F
$$


........................KEY........................
SKY/WX - SKY CONDITION/WEATHER
TMP    - TEMPERATURE IN FAHRENHEIT
DP     - DEW POINT IN FAHRENHEIT
RH     - RELATIVE HUMIDITY IN PERCENT
WIND   - DIRECTION AND SPEED IN MILES PER HOUR (MPH)
VRB    - VARIABLE WIND DIRECTION
PRES   - MEAN SEA LEVEL PRESSURE IN INCHES OF MERCURY
         F - FALLING PRESSURE   R - RISING PRESSURE
         S - STEADY PRESSURE
VSB    - VISIBILITY IN MILES
HX     - HEAT INDEX IN FAHRENHEIT
WCI    - WIND CHILL INDEX IN FAHRENHEIT
TC     - TEMPERATURE IN CELSIUS WHICH IS ALSO KNOWN AS
         TEMPERATURE IN CENTIGRADE
AFB    - AIR FORCE BASE
         LUKE AFB IS LUKE AIR FORCE BASE
         DAVIS-MONTHAN IS DAVIS-MONTHAN AIR FORCE BASE
NAS    - NAVAL AIR STATION
         EL CENTRO NAS IS EL CENTRO NAVAL AIR STATION
N/A    - NOT AVAILABLE





USA.gov is the U.S. government's official web portal to all federal, state and local government web resources and services.